FENGYUN 1C DEB, 31524

Orbit data source: Space-Track

FENGYUN 1C DEB, 31524 is space debris in SSO originally from a launch on Mon, 10 May 1999 UTC launched from the Taiyaun Space Center, China (TSC). Fengyun 1C debris stems from the Chinese weather satellite Fengyun-1C, which was intentionally destroyed by a Chinese anti-satellite missile in 2007. This event dramatically increased the amount of space debris, with thousands of trackable fragments posing hazards to satellites and human spaceflight. The Fengyun 1C debris cloud has become a focal point in discussions about space sustainability and the need for international regulations to prevent the creation of new debris.

Loading next visibility...
Identifier
31524, 1999-025BXP
Orbit
SSO
Country
Flag of CNCN / PRC
Related business
Manufacturer
Unknown
Mission
Spacecraft
Bus & Motor
Unknown
Mass
Unknown
Launch date (UTC)
1999-05-10 (27 years ago)
Launch vehicle
Unknown
Launch site
Taiyaun Space Center, China (TSC)
Object type
Payload
Rocket body
Debris
Shape & HBR
Unknown shape, 0.1 m
Radar Cross Section
Small (<0.1 m²)

Expand to show TLE details & history
Last TLE update: 2 days ago

TLE from 2 days ago
0 FENGYUN 1C DEB
1 31524U 99025BXP 26167.50375294  .00000559  00000-0  25573-3 0  9991
2 31524  99.2590  58.1814 0276602 327.1339 155.4774 14.07547596657648
Epoch: 2026-06-16T12:05Z
TLE epoch observation values (Epoch: 2026-06-16T12:05:24.254Z)
Latitude
55.11475°
Longitude
165.50676°
Altitude
1,060.149 km
Speed
7.234 km/s
True Right ascension
16h 46m 31s
True Declination
54° 57' 35"
Sunlit
Object was in daylight at epoch
Visualization orbit readout
Latitude
Unknown
Longitude
Unknown
Altitude
Unknown
Speed
Unknown
Apparent Right ascension
Unknown
Apparent Declination
Unknown
Sunlit
N/A
Visualization observer readout
Local Sidereal Time
07:57:37
Azimuth
Unknown
Elevation
Unknown
Doppler factor
Unknown
Orbital elements
Apogee altitude
1,065.321 km
Perigee altitude
664.629 km
Semi-major axis
7,243.112 km
Eccentricity
0.02766
Inclination
99.259°
RAAN
58.1814°
Arg. of periapsis
327.1339°
True anomaly
156.75269°
Mean anomaly
155.4774°
Eccentric anomaly
156.11899°
Mean motion
3.52091 °/min
Orbital period
102.25 mins
BSTAR
0.00025573
Loading maneuver chart data...
Computing Atmospheric mass density...
Loading historical data...
Loading historical data...
Loading historical data...
Loading historical data...
Loading historical data...
Loading historical data...
Loading historical data...

Documentation

Showing up to 5 results
|